STARLINK-34041 (63844 NORAD) Tracking and Keplerian Element Data

This shows tracking and keplerian element data for the satellite.

Feedback or suggestion? Click here.




ElementValue
Catalog63844
NameSTARLINK-34041
Epoch Orbit3581
Epoch Day354.21178693
Epoch Year2025
RAAN167.0517
Inclination43.0045
Eccentricity0.0002111
Argument of Perigee279.2035
Mean Anonmoly80.8578
Mean Motion15.27594075
Decay Rate0.00012974
L11 63844U 25093J 25354.21178693 .00012974 00000+0 47997-3 0 9991
L22 63844 43.0045 167.0517 0002111 279.2035 80.8578 15.27594075 35811



Live tracking and technical data element details for STARLINK-34041 (NORAD 63844). STARLINK-34041 can be tracked NOW for your location showing map with azimuth and elevation plus other details from your city location.







IsCatalogInMostPopularTable: catalog: 63844, numindb: 11
Update: records affected: 1



GetName: 63844 STARLINK-34041

Hit Count: updated at: Thu, 21 May 2026 11:25:19 GMT